RSCU73 YCBG-YCBG

Flight info

Callsign RSCU73
Flight time 0h 53m
Altitude 5500
Route VFR
Aircraft B412/M-SDE3FGHIRWY/H

Departure

Time 2026-04-15 14:13
Airport Cambridge Aerodrome (YCBG)

Arrival

Time 2026-04-15 15:06
Airport Cambridge Aerodrome (YCBG)
Time Latitude Longitude Altitude Speed Heading
2026-04-15 14:05 -42.82983 147.47690 38 ft 0 kts
2026-04-15 14:12 -42.82968 147.47700 62 ft 11 kts
2026-04-15 14:12 -42.82849 147.47768 207 ft 26 kts 342°
2026-04-15 14:12 -42.82498 147.47657 344 ft 78 kts 316°
2026-04-15 14:13 -42.82005 147.47105 393 ft 94 kts 289°
2026-04-15 14:13 -42.81705 147.46423 712 ft 91 kts 285°
2026-04-15 14:13 -42.81376 147.45647 993 ft 87 kts 284°
2026-04-15 14:13 -42.81084 147.44995 1236 ft 75 kts 283°
2026-04-15 14:14 -42.80824 147.44432 1486 ft 66 kts 283°
2026-04-15 14:14 -42.80586 147.43928 1738 ft 61 kts 282°
2026-04-15 14:14 -42.80355 147.43437 1936 ft 63 kts 281°
2026-04-15 14:14 -42.80116 147.42930 2029 ft 64 kts 280°
2026-04-15 14:15 -42.79853 147.42374 2053 ft 79 kts 289°
2026-04-15 14:15 -42.79562 147.41773 2073 ft 73 kts 297°
2026-04-15 14:15 -42.79280 147.41198 2080 ft 74 kts 299°
2026-04-15 14:15 -42.78987 147.40607 2084 ft 76 kts 298°
2026-04-15 14:16 -42.78696 147.40027 2090 ft 73 kts 300°
2026-04-15 14:16 -42.78408 147.39462 2085 ft 73 kts 301°
2026-04-15 14:16 -42.78112 147.38887 2089 ft 74 kts 301°
2026-04-15 14:16 -42.77812 147.38309 2090 ft 75 kts 301°
2026-04-15 14:17 -42.77509 147.37730 2090 ft 76 kts 301°
2026-04-15 14:17 -42.77204 147.37152 2090 ft 75 kts 301°
2026-04-15 14:17 -42.76905 147.36586 2089 ft 74 kts 302°
2026-04-15 14:17 -42.76597 147.36012 2085 ft 76 kts 303°
2026-04-15 14:18 -42.76277 147.35426 2103 ft 77 kts 301°
2026-04-15 14:18 -42.75974 147.34851 2093 ft 74 kts 302°
2026-04-15 14:18 -42.75666 147.34275 2089 ft 76 kts 302°
2026-04-15 14:18 -42.75355 147.33694 2089 ft 75 kts 302°
2026-04-15 14:19 -42.75043 147.33115 2092 ft 76 kts 302°
2026-04-15 14:19 -42.74733 147.32537 2090 ft 75 kts 302°
2026-04-15 14:19 -42.74429 147.31971 2091 ft 75 kts 302°
2026-04-15 14:19 -42.74120 147.31399 2090 ft 75 kts 302°
2026-04-15 14:20 -42.73810 147.30825 2090 ft 75 kts 302°
2026-04-15 14:20 -42.73500 147.30253 2090 ft 75 kts 302°
2026-04-15 14:20 -42.73189 147.29680 2089 ft 75 kts 302°
2026-04-15 14:20 -42.72878 147.29109 2090 ft 75 kts 302°
2026-04-15 14:21 -42.72566 147.28537 2090 ft 75 kts 302°
2026-04-15 14:21 -42.72256 147.27966 2090 ft 75 kts 302°
2026-04-15 14:21 -42.71945 147.27396 2090 ft 75 kts 302°
2026-04-15 14:21 -42.71638 147.26832 2090 ft 75 kts 302°
2026-04-15 14:22 -42.71328 147.26261 2089 ft 75 kts 302°
2026-04-15 14:22 -42.71015 147.25690 2090 ft 75 kts 302°
2026-04-15 14:22 -42.70705 147.25122 2090 ft 75 kts 302°
2026-04-15 14:22 -42.70393 147.24552 2089 ft 75 kts 302°
2026-04-15 14:23 -42.70080 147.23981 2090 ft 75 kts 302°
2026-04-15 14:23 -42.69769 147.23411 2090 ft 75 kts 302°
2026-04-15 14:23 -42.69457 147.22840 2090 ft 75 kts 302°
2026-04-15 14:23 -42.69150 147.22272 1939 ft 73 kts 301°
2026-04-15 14:24 -42.68857 147.21715 1577 ft 72 kts 301°
2026-04-15 14:24 -42.68562 147.21163 1378 ft 74 kts 302°
2026-04-15 14:24 -42.68255 147.20599 1289 ft 74 kts 303°
2026-04-15 14:24 -42.67945 147.20035 1252 ft 75 kts 303°
2026-04-15 14:25 -42.67633 147.19469 1238 ft 75 kts 303°
2026-04-15 14:25 -42.67320 147.18903 1227 ft 75 kts 303°
2026-04-15 14:25 -42.67006 147.18333 1227 ft 75 kts 302°
2026-04-15 14:25 -42.66697 147.17770 1222 ft 74 kts 302°
2026-04-15 14:26 -42.66387 147.17206 1221 ft 75 kts 302°
2026-04-15 14:26 -42.66076 147.16641 1221 ft 75 kts 302°
2026-04-15 14:26 -42.65827 147.16038 1244 ft 77 kts 256°
2026-04-15 14:26 -42.66336 147.15780 1335 ft 88 kts 175°
2026-04-15 14:27 -42.66829 147.16247 1236 ft 90 kts 126°
2026-04-15 14:27 -42.66957 147.17072 993 ft 92 kts 76°
2026-04-15 14:27 -42.66704 147.17837 822 ft 79 kts 61°
2026-04-15 14:27 -42.66774 147.18269 778 ft 39 kts 195°
2026-04-15 14:28 -42.66796 147.17906 623 ft 64 kts 316°
2026-04-15 14:28 -42.66472 147.18068 653 ft 53 kts 109°
2026-04-15 14:28 -42.66632 147.18236 422 ft 24 kts 201°
2026-04-15 14:28 -42.66694 147.18022 401 ft 20 kts 218°
2026-04-15 14:29 -42.66724 147.17927 323 ft 9 kts 257°
2026-04-15 14:29 -42.66742 147.17876 296 ft 3 kts 284°
2026-04-15 14:29 -42.66750 147.17876 289 ft 1 kts 322°
2026-04-15 14:29 -42.66748 147.17870 286 ft 0 kts 47°
2026-04-15 14:30 -42.66749 147.17869 285 ft 0 kts 47°
2026-04-15 14:53 -42.66755 147.17863 328 ft 3 kts 39°
2026-04-15 14:53 -42.66741 147.17780 452 ft 26 kts 284°
2026-04-15 14:53 -42.66909 147.17399 614 ft 67 kts 217°
2026-04-15 14:53 -42.67241 147.17050 1058 ft 55 kts 194°
2026-04-15 14:54 -42.67642 147.17088 1361 ft 64 kts 152°
2026-04-15 14:54 -42.68001 147.17487 1422 ft 67 kts 143°
2026-04-15 14:54 -42.68343 147.17904 1445 ft 65 kts 146°
2026-04-15 14:54 -42.68684 147.18294 1458 ft 63 kts 148°
2026-04-15 14:55 -42.69028 147.18665 1463 ft 63 kts 150°
2026-04-15 14:55 -42.69378 147.19023 1467 ft 63 kts 152°
2026-04-15 14:55 -42.69730 147.19367 1469 ft 62 kts 153°
2026-04-15 14:55 -42.70082 147.19698 1471 ft 62 kts 154°
2026-04-15 14:56 -42.70439 147.20025 1469 ft 64 kts 155°
2026-04-15 14:56 -42.70893 147.20414 1473 ft 81 kts 152°
2026-04-15 14:56 -42.71359 147.20816 1469 ft 79 kts 154°
2026-04-15 14:56 -42.71825 147.21206 1467 ft 78 kts 155°
2026-04-15 14:57 -42.72291 147.21587 1471 ft 78 kts 156°
2026-04-15 14:57 -42.72760 147.21962 1464 ft 78 kts 157°
2026-04-15 14:57 -42.73229 147.22330 1470 ft 77 kts 157°
2026-04-15 14:57 -42.73699 147.22691 1466 ft 78 kts 157°
2026-04-15 14:58 -42.74169 147.23050 1471 ft 77 kts 158°
2026-04-15 14:58 -42.74634 147.23401 1471 ft 77 kts 158°
2026-04-15 14:58 -42.75106 147.23754 1467 ft 77 kts 158°
2026-04-15 14:58 -42.75576 147.24103 1471 ft 77 kts 158°
2026-04-15 14:59 -42.76048 147.24451 1471 ft 77 kts 159°
2026-04-15 14:59 -42.76520 147.24798 1466 ft 77 kts 159°
2026-04-15 14:59 -42.76991 147.25142 1470 ft 77 kts 159°
2026-04-15 14:59 -42.77464 147.25486 1471 ft 77 kts 158°
2026-04-15 15:00 -42.77938 147.25830 1470 ft 78 kts 159°
2026-04-15 15:00 -42.78415 147.26175 1472 ft 77 kts 159°
2026-04-15 15:00 -42.78884 147.26514 1471 ft 77 kts 159°
2026-04-15 15:00 -42.79358 147.26857 1472 ft 77 kts 159°
2026-04-15 15:01 -42.79832 147.27199 1471 ft 77 kts 159°
2026-04-15 15:01 -42.80305 147.27540 1464 ft 77 kts 159°
2026-04-15 15:01 -42.80779 147.27881 1468 ft 77 kts 159°
2026-04-15 15:01 -42.81255 147.28223 1471 ft 77 kts 159°
2026-04-15 15:02 -42.81727 147.28563 1471 ft 77 kts 159°
2026-04-15 15:02 -42.82203 147.28905 1472 ft 77 kts 159°
2026-04-15 15:02 -42.82679 147.29247 1471 ft 77 kts 159°
2026-04-15 15:02 -42.83147 147.29584 1471 ft 77 kts 159°
2026-04-15 15:03 -42.83622 147.29925 1471 ft 77 kts 159°
2026-04-15 15:03 -42.84097 147.30266 1471 ft 77 kts 159°
2026-04-15 15:03 -42.84571 147.30605 1471 ft 77 kts 159°
2026-04-15 15:03 -42.85043 147.30949 1467 ft 78 kts 155°
2026-04-15 15:04 -42.85445 147.31463 1471 ft 80 kts 137°
2026-04-15 15:04 -42.85808 147.32042 1469 ft 80 kts 134°
2026-04-15 15:04 -42.86160 147.32642 1471 ft 81 kts 132°
2026-04-15 15:04 -42.86499 147.33256 1474 ft 80 kts 130°
2026-04-15 15:05 -42.86862 147.33826 1537 ft 79 kts 151°
2026-04-15 15:05 -42.87322 147.34228 1503 ft 81 kts 155°
2026-04-15 15:05 -42.87783 147.34648 1354 ft 78 kts 157°
2026-04-15 15:05 -42.88263 147.34648 1117 ft 67 kts 211°
2026-04-15 15:06 -42.88350 147.33704 753 ft 48 kts 297°
2026-04-15 15:06 -42.88175 147.33368 573 ft 41 kts 303°
2026-04-15 15:06 -42.88029 147.33119 325 ft 22 kts 316°
2026-04-15 15:07 -42.87979 147.33054 229 ft 3 kts 319°
2026-04-15 15:07 -42.87973 147.33049 223 ft 0 kts 315°
2026-04-15 15:07 -42.87973 147.33048 220 ft 0 kts 317°
2026-04-15 15:19 -42.87977 147.33058 243 ft 4 kts 319°
2026-04-15 15:19 -42.87915 147.32982 392 ft 40 kts 316°
2026-04-15 15:19 -42.87579 147.32524 510 ft 83 kts 307°
2026-04-15 15:19 -42.86996 147.32408 615 ft 104 kts 22°
2026-04-15 15:20 -42.86743 147.33322 841 ft 104 kts 72°
2026-04-15 15:20 -42.86713 147.34244 1199 ft 93 kts 71°
2026-04-15 15:20 -42.86632 147.35107 1421 ft 91 kts 64°
2026-04-15 15:20 -42.86569 147.35981 1404 ft 98 kts 70°
2026-04-15 15:21 -42.86591 147.36901 1408 ft 95 kts 73°
2026-04-15 15:21 -42.86619 147.37801 1542 ft 93 kts 75°
2026-04-15 15:21 -42.86589 147.38669 1596 ft 90 kts 75°
2026-04-15 15:21 -42.86452 147.39483 1616 ft 88 kts 68°
2026-04-15 15:22 -42.86288 147.40282 1628 ft 87 kts 67°
2026-04-15 15:22 -42.86123 147.41075 1632 ft 88 kts 68°
2026-04-15 15:22 -42.85957 147.41882 1633 ft 88 kts 67°
2026-04-15 15:22 -42.85793 147.42692 1635 ft 89 kts 68°
2026-04-15 15:23 -42.85618 147.43508 1640 ft 89 kts 65°
2026-04-15 15:23 -42.85407 147.44289 1649 ft 88 kts 61°
2026-04-15 15:23 -42.85188 147.45057 1483 ft 89 kts 60°
2026-04-15 15:23 -42.84967 147.45827 1303 ft 87 kts 61°
2026-04-15 15:24 -42.84765 147.46538 1116 ft 69 kts 61°
2026-04-15 15:24 -42.84617 147.47086 934 ft 57 kts 60°
2026-04-15 15:24 -42.84421 147.47582 1055 ft 66 kts 46°
2026-04-15 15:24 -42.84064 147.48108 1037 ft 86 kts 35°
2026-04-15 15:25 -42.83505 147.48478 777 ft 95 kts 359°
2026-04-15 15:25 -42.82935 147.48199 470 ft 81 kts 327°
2026-04-15 15:25 -42.82645 147.47869 331 ft 25 kts 320°
2026-04-15 15:25 -42.82629 147.47734 228 ft 18 kts 197°
2026-04-15 15:26 -42.82766 147.47743 114 ft 19 kts 161°
2026-04-15 15:26 -42.82810 147.47732 82 ft 5 kts 214°
2026-04-15 15:26 -42.82822 147.47718 94 ft 2 kts 251°
2026-04-15 15:26 -42.82824 147.47717 107 ft 2 kts 251°
2026-04-15 15:27 -42.82825 147.47715 120 ft 1 kts 251°
2026-04-15 15:27 -42.82825 147.47713 130 ft 1 kts 251°
2026-04-15 15:27 -42.82828 147.47721 129 ft 4 kts 251°
2026-04-15 15:28 -42.82835 147.47720 135 ft 1 kts 251°
2026-04-15 15:28 -42.82838 147.47729 138 ft 3 kts 251°
2026-04-15 15:28 -42.82833 147.47728 141 ft 1 kts 251°
2026-04-15 15:28 -42.82834 147.47724 145 ft 1 kts 251°
2026-04-15 15:29 -42.82835 147.47723 147 ft 0 kts 251°
2026-04-15 15:29 -42.82837 147.47712 152 ft 1 kts 251°
2026-04-15 15:30 -42.82836 147.47713 163 ft 0 kts 250°
2026-04-15 15:30 -42.82832 147.47717 166 ft 1 kts 248°
2026-04-15 15:30 -42.82836 147.47708 170 ft 3 kts 248°
2026-04-15 15:30 -42.82843 147.47694 175 ft 1 kts 248°
2026-04-15 15:31 -42.82840 147.47700 179 ft 3 kts 246°
2026-04-15 15:31 -42.82857 147.47697 189 ft 14 kts 234°
2026-04-15 15:31 -42.82930 147.47731 97 ft 6 kts 198°
2026-04-15 15:31 -42.82943 147.47727 69 ft 2 kts 189°
2026-04-15 15:32 -42.82949 147.47685 66 ft 6 kts 254°
2026-04-15 15:32 -42.82943 147.47644 47 ft 3 kts 199°
2026-04-15 15:32 -42.82945 147.47640 39 ft 1 kts 192°
2026-04-15 15:32 -42.82946 147.47640 38 ft 0 kts 192°
2026-04-15 15:41 -42.82945 147.47641 42 ft 1 kts 183°
2026-04-15 15:42 -42.82952 147.47647 73 ft 6 kts 95°
2026-04-15 15:42 -42.82939 147.47714 54 ft 10 kts 47°
2026-04-15 15:42 -42.82851 147.47824 105 ft 21 kts
2026-04-15 15:42 -42.82703 147.47929 138 ft 21 kts 336°
2026-04-15 15:43 -42.82525 147.47728 153 ft 41 kts 316°
2026-04-15 15:43 -42.82266 147.47581 266 ft 47 kts 339°
2026-04-15 15:43 -42.81932 147.47846 309 ft 70 kts 31°
2026-04-15 15:43 -42.81853 147.48597 317 ft 85 kts 73°
2026-04-15 15:44 -42.81844 147.49281 316 ft 67 kts 54°
2026-04-15 15:44 -42.81689 147.49932 455 ft 75 kts 49°
2026-04-15 15:44 -42.81505 147.50568 602 ft 68 kts 31°
2026-04-15 15:44 -42.81219 147.51109 741 ft 72 kts 30°
2026-04-15 15:45 -42.80926 147.51660 890 ft 73 kts 31°
2026-04-15 15:45 -42.80623 147.52229 1039 ft 76 kts 30°
2026-04-15 15:45 -42.80310 147.52821 1203 ft 76 kts 27°
2026-04-15 15:45 -42.79997 147.53408 1360 ft 79 kts 27°
2026-04-15 15:46 -42.79667 147.54017 1436 ft 81 kts 26°
2026-04-15 15:46 -42.79305 147.54609 1491 ft 81 kts 21°
2026-04-15 15:46 -42.78881 147.55142 1405 ft 85 kts 22°
2026-04-15 15:46 -42.78453 147.55597 1364 ft 72 kts 25°
2026-04-15 15:47 -42.78062 147.55937 1280 ft 65 kts 21°
2026-04-15 15:47 -42.77708 147.56348 1114 ft 73 kts 56°
2026-04-15 15:47 -42.77805 147.57005 945 ft 74 kts 131°
2026-04-15 15:47 -42.78243 147.57234 836 ft 67 kts 195°
2026-04-15 15:48 -42.78537 147.56873 736 ft 55 kts 265°
2026-04-15 15:48 -42.78481 147.56393 633 ft 52 kts 311°
2026-04-15 15:48 -42.78162 147.56256 529 ft 52 kts 14°
2026-04-15 15:48 -42.77931 147.56610 439 ft 55 kts 80°
2026-04-15 15:49 -42.78161 147.56932 391 ft 49 kts 191°
2026-04-15 15:49 -42.78325 147.56663 309 ft 28 kts 287°
2026-04-15 15:49 -42.78256 147.56512 221 ft 15 kts 312°
2026-04-15 15:49 -42.78167 147.56461 227 ft 13 kts 315°
2026-04-15 15:50 -42.78113 147.56562 228 ft 10 kts 18°
2026-04-15 15:50 -42.78106 147.56614 169 ft 6 kts 354°
2026-04-15 15:50 -42.78106 147.56589 135 ft 7 kts 258°
2026-04-15 15:50 -42.78135 147.56559 118 ft 9 kts 244°
2026-04-15 15:51 -42.78287 147.56570 172 ft 32 kts 112°
2026-04-15 15:51 -42.78166 147.56738 199 ft 20 kts 300°
2026-04-15 15:51 -42.78138 147.56637 179 ft 17 kts 264°
2026-04-15 15:51 -42.78133 147.56562 94 ft 6 kts 264°
2026-04-15 15:52 -42.78133 147.56544 60 ft 1 kts 280°
2026-04-15 15:52 -42.78133 147.56546 57 ft 1 kts 280°
2026-04-15 15:52 -42.78132 147.56547 55 ft 0 kts 279°
2026-04-15 16:07 -42.78129 147.56550 65 ft 1 kts 282°
2026-04-15 16:07 -42.78124 147.56546 86 ft 1 kts 204°
2026-04-15 16:07 -42.78613 147.56282 454 ft 68 kts 188°
2026-04-15 16:08 -42.79010 147.56002 863 ft 55 kts 197°
2026-04-15 16:08 -42.79251 147.55716 1353 ft 40 kts 220°
2026-04-15 16:08 -42.79415 147.55411 1753 ft 39 kts 223°
2026-04-15 16:08 -42.79546 147.55089 1751 ft 44 kts 238°
2026-04-15 16:09 -42.79899 147.54700 1724 ft 86 kts 226°
2026-04-15 16:09 -42.80406 147.54224 1726 ft 85 kts 224°
2026-04-15 16:09 -42.80829 147.53716 1718 ft 79 kts 238°
2026-04-15 16:09 -42.81194 147.53172 1714 ft 77 kts 239°
2026-04-15 16:10 -42.81552 147.52637 1713 ft 76 kts 239°
2026-04-15 16:10 -42.81909 147.52105 1711 ft 76 kts 239°
2026-04-15 16:10 -42.82264 147.51575 1711 ft 76 kts 239°
2026-04-15 16:10 -42.82618 147.51053 1714 ft 74 kts 239°
2026-04-15 16:11 -42.82972 147.50541 1693 ft 85 kts 240°
2026-04-15 16:11 -42.83381 147.49874 1714 ft 91 kts 239°
2026-04-15 16:11 -42.83785 147.49230 1711 ft 89 kts 239°
2026-04-15 16:11 -42.84188 147.48596 1710 ft 88 kts 240°
2026-04-15 16:12 -42.84597 147.47959 1709 ft 90 kts 239°
2026-04-15 16:12 -42.85003 147.47313 1712 ft 89 kts 239°
2026-04-15 16:12 -42.85386 147.46677 1711 ft 84 kts 249°
2026-04-15 16:12 -42.85661 147.45978 1710 ft 83 kts 252°
2026-04-15 16:13 -42.85905 147.45273 1714 ft 84 kts 253°
2026-04-15 16:13 -42.86154 147.44544 1712 ft 86 kts 253°
2026-04-15 16:13 -42.86409 147.43819 1714 ft 85 kts 252°
2026-04-15 16:13 -42.86660 147.43097 1708 ft 84 kts 253°
2026-04-15 16:14 -42.86906 147.42353 1714 ft 87 kts 253°
2026-04-15 16:14 -42.87151 147.41590 1713 ft 87 kts 253°
2026-04-15 16:14 -42.87392 147.40838 1713 ft 86 kts 253°
2026-04-15 16:14 -42.87631 147.40092 1711 ft 87 kts 253°
2026-04-15 16:15 -42.87871 147.39336 1711 ft 87 kts 253°
2026-04-15 16:15 -42.88115 147.38580 1712 ft 86 kts 253°
2026-04-15 16:15 -42.88358 147.37827 1725 ft 88 kts 255°
2026-04-15 16:15 -42.88512 147.37068 1669 ft 75 kts 262°
2026-04-15 16:16 -42.88613 147.36450 1424 ft 60 kts 271°
2026-04-15 16:16 -42.88637 147.35885 1269 ft 60 kts 276°
2026-04-15 16:16 -42.88586 147.35316 1221 ft 61 kts 285°
2026-04-15 16:16 -42.88478 147.34751 1150 ft 62 kts 288°
2026-04-15 16:17 -42.88357 147.34172 986 ft 65 kts 286°
2026-04-15 16:17 -42.88238 147.33600 775 ft 59 kts 292°
2026-04-15 16:17 -42.88082 147.33196 460 ft 30 kts 315°
2026-04-15 16:17 -42.87998 147.33083 241 ft 7 kts 316°
2026-04-15 16:18 -42.87978 147.33058 242 ft 5 kts 307°
2026-04-15 16:18 -42.87974 147.33050 228 ft 1 kts 309°
2026-04-15 16:18 -42.87973 147.33049 223 ft 0 kts 311°
2026-04-15 16:27 -42.87966 147.33048 304 ft 11 kts 313°
2026-04-15 16:27 -42.87789 147.32840 478 ft 56 kts 314°
2026-04-15 16:27 -42.87348 147.32777 606 ft 87 kts 38°
2026-04-15 16:28 -42.86999 147.33531 719 ft 97 kts 69°
2026-04-15 16:28 -42.86835 147.34409 946 ft 94 kts 73°
2026-04-15 16:28 -42.86695 147.35261 1160 ft 91 kts 74°
2026-04-15 16:28 -42.86578 147.36096 1473 ft 89 kts 74°
2026-04-15 16:29 -42.86483 147.36920 1737 ft 87 kts 76°
2026-04-15 16:29 -42.86410 147.37738 2009 ft 86 kts 76°
2026-04-15 16:29 -42.86352 147.38541 2236 ft 85 kts 77°
2026-04-15 16:29 -42.86283 147.39381 2357 ft 93 kts 74°
2026-04-15 16:30 -42.86186 147.40285 2466 ft 101 kts 72°
2026-04-15 16:30 -42.86030 147.41283 2455 ft 114 kts 68°
2026-04-15 16:30 -42.85794 147.42367 2360 ft 124 kts 64°
2026-04-15 16:30 -42.85475 147.43495 2177 ft 130 kts 60°
2026-04-15 16:31 -42.85081 147.44611 1931 ft 130 kts 56°
2026-04-15 16:31 -42.84634 147.45677 1595 ft 129 kts 53°
2026-04-15 16:31 -42.84176 147.46721 1267 ft 128 kts 53°
2026-04-15 16:31 -42.83764 147.47643 1206 ft 90 kts 53°
2026-04-15 16:32 -42.83476 147.48202 897 ft 54 kts 43°
2026-04-15 16:32 -42.83202 147.48425 508 ft 47 kts
2026-04-15 16:32 -42.82955 147.48271 135 ft 37 kts 285°
2026-04-15 16:32 -42.82912 147.48063 71 ft 12 kts 290°
2026-04-15 16:33 -42.82893 147.47971 67 ft 10 kts 290°
2026-04-15 16:33 -42.82880 147.47911 57 ft 3 kts 291°
2026-04-15 16:33 -42.82878 147.47909 52 ft 1 kts 284°
2026-04-15 16:33 -42.82903 147.47797 75 ft 17 kts 233°
2026-04-15 16:34 -42.82932 147.47715 66 ft 8 kts 233°
2026-04-15 16:34 -42.82946 147.47656 45 ft 3 kts 223°
2026-04-15 16:34 -42.82945 147.47642 42 ft 1 kts 199°
2026-04-15 16:34 -42.82947 147.47640 40 ft 1 kts 190°
2026-04-15 16:35 -42.82949 147.47639 38 ft 0 kts 192°